This is the latest recevied weather packets stored in our database for station/object IU3NMQ-10. If no packets are shown the sender has not sent any weather packets the latest 10 day(s).
| Time | Temp. | Humidity | Pressure | Rain* | Wind** | Luminosity | Snow |
|---|---|---|---|---|---|---|---|
| 1777616789 | 16.11° C | 43% | 1024.6 hPa | - | - | - | - |
| 1777616746 | 16.11° C | 43% | 1024.6 hPa | - | - | - | - |
| 1777615846 | 15° C | 45% | 1024.7 hPa | - | - | - | - |
| 1777614946 | 14.44° C | 46% | 1024.7 hPa | - | - | - | - |
| 1777614046 | 13.89° C | 47% | 1024.6 hPa | - | - | - | - |
| 1777613146 | 12.78° C | 49% | 1024.5 hPa | - | - | - | - |
| 1777612246 | 12.22° C | 49% | 1024.5 hPa | - | - | - | - |
| 1777611346 | 11.67° C | 51% | 1024.5 hPa | - | - | - | - |
| 1777610495 | 11.11° C | 52% | 1024.4 hPa | - | - | - | - |
| 1777610445 | 11.11° C | 52% | 1024.4 hPa | - | - | - | - |
| 1777609545 | 11.11° C | 53% | 1024.4 hPa | - | - | - | - |
| 1777608645 | 11.11° C | 52% | 1024.2 hPa | - | - | - | - |
| 1777607745 | 10.56° C | 53% | 1024.2 hPa | - | - | - | - |
| 1777606845 | 11.11° C | 53% | 1024.2 hPa | - | - | - | - |
| 1777605945 | 11.11° C | 53% | 1024.2 hPa | - | - | - | - |
| 1777605045 | 11.11° C | 52% | 1024.3 hPa | - | - | - | - |
| 1777604145 | 11.11° C | 52% | 1024.3 hPa | - | - | - | - |
| 1777603245 | 11.11° C | 52% | 1024.2 hPa | - | - | - | - |
| 1777602344 | 11.11° C | 52% | 1024.3 hPa | - | - | - | - |
| 1777601444 | 11.67° C | 51% | 1024.4 hPa | - | - | - | - |
| 1777600544 | 11.67° C | 51% | 1024.6 hPa | - | - | - | - |
| 1777599644 | 12.22° C | 50% | 1024.5 hPa | - | - | - | - |
| 1777598744 | 12.22° C | 49% | 1024.4 hPa | - | - | - | - |
| 1777597844 | 12.22° C | 49% | 1024.4 hPa | - | - | - | - |
| 1777596944 | 12.78° C | 50% | 1024.5 hPa | - | - | - | - |
* Rain since midnight (hover to see other rain measurements)
** Current wind speed in m/s (hover to see current wind gust speed)